Location: Peterborough
(44.3091°N, 78.3197°W)
Time: 07:13:14
(UTC-04:00)

Vanguard 2 - Pass Details

Date: 31 March 2023
Orbit: 552 x 2926 km, 32.9° (Epoch: 04 June)

Event Time Altitude Azimuth Distance (km) Brightness Sun altitude
Rises 03:54:28 0° 216° (SW) 6,159 - -30.2°
Reaches altitude 10° 03:58:47 10° 208° (SSW) 5,384 - -29.6°
Exits shadow 04:05:29 26° 189° (S) 4,434 10.9 -28.7°
Maximum altitude 04:13:11 36° 150° (SSE) 3,994 11.0 -27.7°
Drops below altitude 10° 04:27:38 10° 93° (E) 5,437 12.5 -25.6°
Sets 04:31:58 0° 85° (E) 6,227 13.1 -25.0°
